• In Hungary
  • List of Countries
  • For 7 days
  • Water Temperature
  • Satellite Maps
  • Weather Map
  • News
  • Weather Widgets
  • user-avatar
    Login

    Hourly Weather Michalin

    Today, 25 September, Tuesday

    Time Temperature Precipitation Wind Pressure Humidity
    00:00 +6°C° 0.1 mm 5 mps 745 mmHg 65%
    01:00 +5°C° 0.1 mm 5 mps 745 mmHg 66%
    02:00 +5°C° 0.1 mm 5 mps 745 mmHg 66%
    03:00 +5°C° 0.1 mm 5 mps 746 mmHg 66%
    04:00 +5°C° 0.1 mm 5 mps 746 mmHg 66%
    05:00 +5°C° 0 mm 5 mps 747 mmHg 63%
    06:00 +6°C° 0 mm 5 mps 748 mmHg 61%
    07:00 +5°C° 0 mm 6 mps 748 mmHg 58%
    08:00 +8°C° 0 mm 6 mps 749 mmHg 52%
    09:00 +9°C° 0 mm 7 mps 750 mmHg 47%
    10:00 +10°C° 0 mm 7 mps 751 mmHg 41%
    11:00 +10°C° 0 mm 7 mps 751 mmHg 40%
    12:00 +11°C° 0 mm 7 mps 752 mmHg 39%
    13:00 +11°C° 0 mm 7 mps 752 mmHg 37%
    14:00 +10°C° 0 mm 6 mps 752 mmHg 39%
    15:00 +10°C° 0 mm 6 mps 752 mmHg 40%
    16:00 +10°C° 0 mm 5 mps 752 mmHg 41%
    17:00 +8°C° 0 mm 4 mps 752 mmHg 45%
    18:00 +8°C° 0 mm 3 mps 753 mmHg 50%
    19:00 +7°C° 0 mm 3 mps 753 mmHg 54%
    20:00 +5°C° 0 mm 3 mps 753 mmHg 57%
    21:00 +5°C° 0 mm 3 mps 753 mmHg 60%
    22:00 +5°C° 0 mm 3 mps 753 mmHg 63%
    23:00 +5°C° 0 mm 3 mps 753 mmHg 67%

    Tomorrow, 26 September, Wednesday

    Time Temperature Precipitation Wind Pressure Humidity
    00:00 +5°C° 0 mm 4 mps 753 mmHg 71%
    01:00 +5°C° 0 mm 4 mps 753 mmHg 75%
    02:00 +5°C° 0 mm 4 mps 753 mmHg 76%
    03:00 +5°C° 0 mm 5 mps 753 mmHg 77%
    04:00 +5°C° 0 mm 5 mps 752 mmHg 79%
    05:00 +5°C° 0 mm 5 mps 752 mmHg 76%
    06:00 +5°C° 0 mm 6 mps 752 mmHg 73%
    07:00 +5°C° 0 mm 6 mps 752 mmHg 70%
    08:00 +8°C° 0 mm 7 mps 752 mmHg 66%
    09:00 +9°C° 0 mm 7 mps 751 mmHg 62%
    10:00 +10°C° 0 mm 8 mps 751 mmHg 57%
    11:00 +10°C° 0.1 mm 8 mps 750 mmHg 58%
    12:00 +10°C° 0.1 mm 8 mps 750 mmHg 59%
    13:00 +11°C° 0.1 mm 8 mps 749 mmHg 59%
    14:00 +10°C° 0.3 mm 8 mps 749 mmHg 61%
    15:00 +10°C° 0.3 mm 8 mps 748 mmHg 62%
    16:00 +10°C° 0.3 mm 7 mps 747 mmHg 63%
    17:00 +10°C° 0.1 mm 8 mps 747 mmHg 62%
    18:00 +10°C° 0.1 mm 8 mps 746 mmHg 60%
    19:00 +11°C° 0.1 mm 8 mps 746 mmHg 59%
    20:00 +11°C° 0.1 mm 8 mps 746 mmHg 60%
    21:00 +11°C° 0.1 mm 9 mps 745 mmHg 61%
    22:00 +11°C° 0.1 mm 9 mps 745 mmHg 61%
    23:00 +12°C° 0 mm 9 mps 745 mmHg 65%

    Day after tomorrow, 27 September, Thursday

    Time Temperature Precipitation Wind Pressure Humidity
    00:00 +12°C° 0 mm 9 mps 745 mmHg 69%
    01:00 +12°C° 0 mm 9 mps 744 mmHg 73%
    02:00 +12°C° 0 mm 9 mps 744 mmHg 76%
    03:00 +12°C° 0 mm 9 mps 744 mmHg 79%
    04:00 +12°C° 0 mm 9 mps 744 mmHg 83%
    05:00 +13°C° 0.1 mm 8 mps 744 mmHg 83%
    06:00 +13°C° 0.1 mm 8 mps 744 mmHg 83%
    07:00 +13°C° 0.1 mm 8 mps 745 mmHg 83%
    08:00 +13°C° 0.1 mm 8 mps 745 mmHg 83%
    09:00 +15°C° 0.1 mm 8 mps 745 mmHg 82%
    10:00 +15°C° 0.1 mm 8 mps 745 mmHg 81%
    11:00 +15°C° 0.1 mm 7 mps 745 mmHg 80%
    12:00 +15°C° 0.1 mm 7 mps 746 mmHg 79%
    13:00 +15°C° 0.1 mm 7 mps 746 mmHg 78%
    14:00 +15°C° 0 mm 7 mps 745 mmHg 78%
    15:00 +15°C° 0 mm 7 mps 745 mmHg 77%
    16:00 +16°C° 0 mm 6 mps 745 mmHg 76%
    17:00 +15°C° 0 mm 6 mps 745 mmHg 79%
    18:00 +14°C° 0 mm 5 mps 745 mmHg 82%
    19:00 +13°C° 0 mm 5 mps 744 mmHg 85%
    20:00 +13°C° 0 mm 5 mps 744 mmHg 85%
    21:00 +13°C° 0 mm 5 mps 743 mmHg 84%
    22:00 +14°C° 0 mm 6 mps 743 mmHg 84%
    23:00 +14°C° 0 mm 6 mps 742 mmHg 83%

    28 September, Friday

    Time Temperature Precipitation Wind Pressure Humidity
    00:00 +14°C° 0 mm 6 mps 742 mmHg 83%
    01:00 +14°C° 0 mm 6 mps 741 mmHg 83%
    02:00 +14°C° 0 mm 6 mps 740 mmHg 82%
    03:00 +14°C° 0 mm 6 mps 740 mmHg 81%
    04:00 +12°C° 0 mm 7 mps 740 mmHg 80%
    05:00 +12°C° 0 mm 7 mps 740 mmHg 79%
    06:00 +12°C° 0 mm 7 mps 740 mmHg 79%
    07:00 +12°C° 0 mm 7 mps 739 mmHg 78%
    08:00 +12°C° 0 mm 7 mps 740 mmHg 73%
    09:00 +12°C° 0 mm 7 mps 740 mmHg 68%
    10:00 +12°C° 0 mm 7 mps 741 mmHg 62%
    11:00 +12°C° 0 mm 7 mps 741 mmHg 57%
    12:00 +14°C° 0 mm 7 mps 742 mmHg 51%
    13:00 +14°C° 0 mm 7 mps 742 mmHg 46%
    14:00 +14°C° 0 mm 6 mps 742 mmHg 49%
    15:00 +13°C° 0 mm 6 mps 742 mmHg 51%
    16:00 +13°C° 0 mm 5 mps 742 mmHg 54%
    17:00 +11°C° 0 mm 4 mps 743 mmHg 58%
    18:00 +10°C° 0 mm 3 mps 743 mmHg 63%
    19:00 +9°C° 0 mm 3 mps 743 mmHg 68%
    20:00 +9°C° 0 mm 2 mps 743 mmHg 69%
    21:00 +9°C° 0 mm 2 mps 744 mmHg 70%
    22:00 +9°C° 0 mm 2 mps 744 mmHg 71%
    23:00 +8°C° 0 mm 2 mps 744 mmHg 71%

    29 September, Saturday

    Time Temperature Precipitation Wind Pressure Humidity
    00:00 +8°C° 0 mm 2 mps 745 mmHg 71%
    01:00 +7°C° 0 mm 2 mps 745 mmHg 72%
    02:00 +7°C° 0 mm 2 mps 745 mmHg 71%
    03:00 +8°C° 0 mm 1 mps 746 mmHg 70%
    04:00 +8°C° 0 mm 1 mps 746 mmHg 69%
    05:00 +8°C° 0 mm 1 mps 746 mmHg 68%
    06:00 +8°C° 0 mm 1 mps 747 mmHg 67%
    07:00 +9°C° 0 mm 1 mps 747 mmHg 67%
    08:00 +10°C° 0 mm 1 mps 748 mmHg 60%
    09:00 +11°C° 0 mm 1 mps 748 mmHg 52%
    10:00 +13°C° 0 mm 2 mps 749 mmHg 45%
    11:00 +13°C° 0 mm 1 mps 749 mmHg 43%
    12:00 +14°C° 0 mm 1 mps 749 mmHg 41%
    13:00 +14°C° 0 mm 1 mps 749 mmHg 39%
    14:00 +14°C° 0 mm 1 mps 749 mmHg 40%
    15:00 +13°C° 0 mm 1 mps 749 mmHg 41%
    16:00 +13°C° 0 mm 1 mps 749 mmHg 42%
    17:00 +12°C° 0 mm 1 mps 749 mmHg 46%
    18:00 +9°C° 0 mm 2 mps 749 mmHg 50%
    19:00 +8°C° 0 mm 2 mps 749 mmHg 54%
    20:00 +8°C° 0 mm 2 mps 749 mmHg 56%
    21:00 +8°C° 0 mm 3 mps 749 mmHg 57%
    22:00 +7°C° 0 mm 3 mps 749 mmHg 59%
    23:00 +7°C° 0 mm 3 mps 749 mmHg 59%

    30 September, Sunday

    Time Temperature Precipitation Wind Pressure Humidity
    00:00 +6°C° 0 mm 4 mps 749 mmHg 58%
    01:00 +6°C° 0 mm 4 mps 748 mmHg 58%
    02:00 +6°C° 0 mm 4 mps 748 mmHg 58%
    03:00 +6°C° 0 mm 4 mps 748 mmHg 58%
    04:00 +6°C° 0 mm 4 mps 747 mmHg 59%
    05:00 +6°C° 0 mm 4 mps 747 mmHg 59%
    06:00 +6°C° 0 mm 5 mps 747 mmHg 59%
    07:00 +6°C° 0 mm 5 mps 747 mmHg 59%
    08:00 +7°C° 0 mm 5 mps 747 mmHg 55%
    09:00 +9°C° 0 mm 5 mps 747 mmHg 52%
    10:00 +10°C° 0 mm 5 mps 747 mmHg 48%
    11:00 +12°C° 0 mm 5 mps 746 mmHg 47%
    12:00 +12°C° 0 mm 5 mps 746 mmHg 45%
    13:00 +13°C° 0 mm 5 mps 745 mmHg 44%
    14:00 +13°C° 0 mm 5 mps 745 mmHg 45%
    15:00 +13°C° 0 mm 4 mps 744 mmHg 47%
    16:00 +12°C° 0 mm 4 mps 744 mmHg 49%
    17:00 +11°C° 0 mm 4 mps 744 mmHg 51%
    18:00 +10°C° 0 mm 4 mps 743 mmHg 54%
    19:00 +10°C° 0 mm 3 mps 743 mmHg 57%
    20:00 +8°C° 0 mm 4 mps 743 mmHg 59%
    21:00 +7°C° 0 mm 4 mps 743 mmHg 61%
    22:00 +7°C° 0 mm 4 mps 742 mmHg 64%
    23:00 +7°C° 0 mm 4 mps 742 mmHg 65%
    Show more